Location: Pallagorio
(39.3000°N, 16.9000°E)
Time: 01:25:56
(UTC+00:00)

Cosmos 2098 Rocket - Pass Details

Date: 24 January 2021
Orbit: 365 x 1182 km, 82.9° (Epoch: 08 March)

Event Time Altitude Azimuth Distance (km) Brightness Sun altitude
Rises 17:42:02 0° 183° (S) 3,853 7.3 -19.0°
Reaches altitude 10° 17:44:32 10° 183° (S) 2,971 6.7 -19.5°
Maximum altitude 17:51:41 87° 96° (E) 1,185 4.3 -20.8°
Drops below altitude 10° 17:59:09 10° 8° (N) 3,089 6.5 -22.3°
Sets 18:01:47 0° 8° (N) 4,013 7.1 -22.8°
